Anoka County, MN

3:09 PM CST on December 09, 2019 (GMT -0600)
Anoka County / Blaine Airport

Weather History for KANE - August, 2019

Change the Weather History Date:

Monday, August 19, 2019

  Actual Average Record
Temperature  
Mean Temperature 66 °F -  
Max Temperature 82 °F 76 °F 87 °F (2013)
Min Temperature 51 °F 57 °F 42 °F (2004)
Cooling Degree Days 2    
Growing Degree Days 16 (Base 50)    
Moisture  
Dew Point 56 °F    
Average Humidity 80    
Maximum Humidity 100    
Minimum Humidity 42    
Precipitation  
Precipitation 0.01 in - - ()
Sea Level Pressure  
Sea Level Pressure 29.98 in    
Wind  
Wind Speed 1 mph (SSW)    
Max Wind Speed 12 mph    
Max Gust Speed -    
Visibility 10 miles    
Events      
Averages and records for this station are not official NWS values.
T = Trace of Precipitation, MM = Missing Value Source: NWS Daily Summary

Daily Weather History Graph

Daily Weather History Graph

Search for Another Location

Airport or City:

Astronomy

Aug. 19, 2019 Rise Set
Actual Time 6:18 AM CDT 8:13 PM CDT
Civil Twilight 5:47 AM CDT 8:44 PM CDT
Nautical Twilight 5:08 AM CDT 9:23 PM CDT
Astronomical Twilight 4:25 AM CDT 10:05 PM CDT
Moon 10:24 PM CDT (8/19) 10:09 AM CDT (8/19)
Length of Visible Light 14h 57m
Length of Day
13h 54m
Waning Gibbous, 85% of the Moon is Illuminated
Aug 19
Waning Gibbous
Aug 23
Last Quarter
Aug 30
New
Sep 5
First Quarter
Sep 13
Full

Hourly Weather History & Observations

Time (CDT) Temp. Heat Index Dew Point Humidity Pressure Visibility Wind Dir Wind Speed Gust Speed Precip Events Conditions
12:19 AM 57.2 °F - 55.4 °F 94% 29.94 in 10.0 mi Calm Calm - 0.01 in   Unknown
12:37 AM 57.2 °F - 55.4 °F 94% 29.95 in 10.0 mi Calm Calm - 0.01 in   Unknown
12:56 AM 55.4 °F - 55.4 °F 100% 29.95 in 10.0 mi Calm Calm - N/A   Unknown
1:16 AM 57.2 °F - 53.6 °F 88% 29.96 in 10.0 mi Calm Calm - N/A   Unknown
1:35 AM 57.2 °F - 53.6 °F 88% 29.96 in 10.0 mi Calm Calm - N/A   Unknown
1:57 AM 55.4 °F - 53.6 °F 94% 29.96 in 10.0 mi Calm Calm - N/A   Unknown
2:15 AM 55.4 °F - 53.6 °F 94% 29.96 in 10.0 mi Calm Calm - N/A   Unknown
2:36 AM 55.4 °F - 53.6 °F 94% 29.96 in 10.0 mi Calm Calm - N/A   Unknown
2:56 AM 55.4 °F - 53.6 °F 94% 29.97 in 10.0 mi Calm Calm - N/A   Unknown
3:18 AM 55.4 °F - 53.6 °F 94% 29.97 in 10.0 mi Calm Calm - N/A   Unknown
3:37 AM 55.4 °F - 53.6 °F 94% 29.97 in 10.0 mi Calm Calm - N/A   Unknown
3:56 AM 55.4 °F - 53.6 °F 94% 29.97 in 10.0 mi Calm Calm - N/A   Unknown
4:16 AM 53.6 °F - 51.8 °F 94% 29.97 in 10.0 mi Calm Calm - N/A   Unknown
4:35 AM 53.6 °F - 53.6 °F 100% 29.98 in 10.0 mi Calm Calm - N/A   Unknown
4:39 AM 53.6 °F - 53.6 °F 100% 29.98 in 10.0 mi Calm Calm - N/A   Unknown
4:58 AM 53.6 °F - 53.6 °F 100% 29.98 in 10.0 mi Calm Calm - N/A   Unknown
5:15 AM 53.6 °F - 53.6 °F 100% 29.98 in 10.0 mi Calm Calm - N/A   Unknown
5:36 AM 53.6 °F - 53.6 °F 100% 29.99 in 10.0 mi Calm Calm - N/A   Unknown
5:56 AM 51.8 °F - 51.8 °F 100% 29.99 in 5.0 mi Calm Calm - N/A   Mist
6:19 AM 53.6 °F - 53.6 °F 100% 29.99 in 10.0 mi Calm Calm - 0.01 in   Unknown
6:36 AM 51.8 °F - 51.8 °F 100% 30.00 in 10.0 mi South 3.5 mph - 0.01 in   Unknown
6:56 AM 53.6 °F - 53.6 °F 100% 30.00 in 10.0 mi South 3.5 mph - N/A   Unknown
6:59 AM 53.6 °F - 53.6 °F 100% 30.00 in 10.0 mi Calm Calm - N/A   Clear
7:55 AM 60.8 °F - 57.2 °F 88% 30.01 in 10.0 mi Calm Calm - N/A   Clear
8:55 AM 66.2 °F - 57.2 °F 73% 30.00 in 10.0 mi Calm Calm - N/A   Clear
9:55 AM 69.8 °F - 53.6 °F 56% 30.01 in 10.0 mi South 9.2 mph - N/A   Clear
10:45 AM 73.4 °F - 51.8 °F 47% 30.01 in 10.0 mi SSW 6.9 mph - N/A   Clear
11:45 AM 75.2 °F - 53.6 °F 47% 30.01 in 10.0 mi SSW 11.5 mph - N/A   Scattered Clouds
12:45 PM 75.2 °F - 55.4 °F 50% 30.01 in 10.0 mi SSW 8.1 mph - N/A   Scattered Clouds
1:45 PM 78.8 °F - 55.4 °F 44% 30.00 in 10.0 mi SSW 9.2 mph - N/A   Scattered Clouds
2:45 PM 78.8 °F - 55.4 °F 44% 29.99 in 10.0 mi SSW 6.9 mph - N/A   Scattered Clouds
3:45 PM 80.6 °F 80.5 °F 55.4 °F 42% 29.97 in 10.0 mi South 8.1 mph - N/A   Partly Cloudy
4:45 PM 82.4 °F 82.0 °F 57.2 °F 42% 29.97 in 10.0 mi South 9.2 mph - N/A   Partly Cloudy
5:45 PM 80.6 °F 80.8 °F 57.2 °F 45% 29.96 in 10.0 mi SSW 9.2 mph - N/A   Partly Cloudy
6:46 PM 78.8 °F - 60.8 °F 54% 29.96 in 10.0 mi SSW 9.2 mph - N/A   Partly Cloudy
7:45 PM 77.0 °F - 60.8 °F 57% 29.96 in 10.0 mi SSW 6.9 mph - N/A   Clear
8:53 PM 73.4 °F - 60.8 °F 65% 29.97 in 10.0 mi Variable 4.6 mph - N/A   Clear
9:49 PM 71.6 °F - 60.8 °F 69% 29.99 in 10.0 mi Calm Calm - N/A   Clear
10:16 PM 69.8 °F - 60.8 °F 73% 29.99 in 10.0 mi Calm Calm - N/A   Unknown
10:35 PM 68.0 °F - 60.8 °F 78% 29.99 in 10.0 mi Calm Calm - N/A   Unknown
10:58 PM 68.0 °F - 60.8 °F 78% 30.00 in 10.0 mi Calm Calm - N/A   Unknown
11:17 PM 68.0 °F - 60.8 °F 78% 30.00 in 10.0 mi Calm Calm - N/A   Unknown
11:36 PM 66.2 °F - 60.8 °F 83% 30.00 in 10.0 mi Calm Calm - N/A   Unknown
11:56 PM 66.2 °F - 60.8 °F 83% 30.00 in 10.0 mi Calm Calm - N/A   Unknown